{"data":{"norad_id":54809,"epoch":"2026-05-25T01:11:48.877728Z","epoch_age_seconds":64505,"freshness":"FRESH","line1":"1 54809U 22175BD  26145.04987127  .00000271  00000+0  35117-4 0  9999","line2":"2 54809  53.2127  45.8804 0001212  86.9555 273.1576 15.08842029191664","mean_motion":15.08842029,"eccentricity":0.0001212,"inclination_deg":53.2127,"raan_deg":45.8804,"arg_perigee_deg":86.9555,"mean_anomaly_deg":273.1576,"bstar":3.5117e-5,"rev_number":19166,"period_min":95.437426339083,"perigee_km":538.89874077829,"apogee_km":540.57563348125,"semimajor_km":6917.8741871298,"source":"CELESTRAK","updated_at":"2026-05-25T13:38:17.716092Z"}}